SHT2T EGLL-EGCC

Flight info

Callsign SHT2T
Flight time 0h 34m
Altitude 18000
Route ULTIB T420 ELVOS
Aircraft A319/M-SDE3FGHIRWY/LB1

Departure

Time 2026-04-30 18:02
Airport London Heathrow Airport (EGLL)

Arrival

Time 2026-04-30 18:36
Airport Manchester Airport (EGCC)
Time Latitude Longitude Altitude Speed Heading
2026-04-30 17:39 51.47403 -0.48829 86 ft 0 kts 179°
2026-04-30 17:50 51.47448 -0.48833 86 ft 4 kts 170°
2026-04-30 17:51 51.47486 -0.48869 89 ft 0 kts 88°
2026-04-30 17:54 51.47486 -0.48652 86 ft 17 kts 89°
2026-04-30 17:55 51.47250 -0.48474 86 ft 15 kts 180°
2026-04-30 17:56 51.46824 -0.48470 86 ft 3 kts 180°
2026-04-30 17:57 51.46653 -0.48567 86 ft 11 kts 271°
2026-04-30 17:58 51.46580 -0.48778 87 ft 2 kts 199°
2026-04-30 17:59 51.46478 -0.48614 86 ft 4 kts 89°
2026-04-30 18:00 51.46478 -0.48566 86 ft 0 kts 91°
2026-04-30 18:01 51.46478 -0.48268 89 ft 59 kts 89°
2026-04-30 18:02 51.46486 -0.44390 1234 ft 118 kts 90°
2026-04-30 18:02 51.46962 -0.39578 2332 ft 178 kts 69°
2026-04-30 18:03 51.49697 -0.33750 3838 ft 254 kts 56°
2026-04-30 18:04 51.53025 -0.26483 6469 ft 276 kts 70°
2026-04-30 18:05 51.59073 -0.20712 10105 ft 311 kts 343°
2026-04-30 18:06 51.66724 -0.29278 12506 ft 355 kts 328°
2026-04-30 18:07 51.75591 -0.37149 15350 ft 371 kts 330°
2026-04-30 18:08 51.82315 -0.43573 17315 ft 380 kts 329°
2026-04-30 18:09 51.91345 -0.52427 18219 ft 371 kts 329°
2026-04-30 18:10 52.00158 -0.61023 18216 ft 370 kts 329°
2026-04-30 18:11 52.08931 -0.69625 18220 ft 369 kts 328°
2026-04-30 18:11 52.15519 -0.76121 18219 ft 369 kts 328°
2026-04-30 18:12 52.22112 -0.82627 18216 ft 369 kts 328°
2026-04-30 18:13 52.26507 -0.86983 18212 ft 369 kts 328°
2026-04-30 18:13 52.32345 -0.92789 18219 ft 369 kts 328°
2026-04-30 18:14 52.36722 -0.97158 18228 ft 369 kts 328°
2026-04-30 18:15 52.43299 -1.03729 18177 ft 370 kts 328°
2026-04-30 18:15 52.49892 -1.10344 18142 ft 370 kts 328°
2026-04-30 18:16 52.54290 -1.14771 18124 ft 371 kts 328°
2026-04-30 18:16 52.58686 -1.19202 18108 ft 371 kts 328°
2026-04-30 18:17 52.60859 -1.21394 18098 ft 371 kts 328°
2026-04-30 18:17 52.63058 -1.23619 18091 ft 371 kts 328°
2026-04-30 18:17 52.67450 -1.28070 18091 ft 371 kts 328°
2026-04-30 18:18 52.69633 -1.30282 17950 ft 364 kts 328°
2026-04-30 18:18 52.71751 -1.32427 17820 ft 353 kts 328°
2026-04-30 18:18 52.73812 -1.34523 17792 ft 343 kts 328°
2026-04-30 18:18 52.75814 -1.36568 17656 ft 333 kts 327°
2026-04-30 18:19 52.77755 -1.38551 17523 ft 324 kts 327°
2026-04-30 18:19 52.79645 -1.40481 17394 ft 315 kts 327°
2026-04-30 18:19 52.81488 -1.42365 17263 ft 307 kts 327°
2026-04-30 18:19 52.83285 -1.44206 17133 ft 300 kts 327°
2026-04-30 18:20 52.85032 -1.46002 17000 ft 292 kts 327°
2026-04-30 18:20 52.86748 -1.47767 16789 ft 289 kts 327°
2026-04-30 18:20 52.88460 -1.49525 16296 ft 297 kts 327°
2026-04-30 18:20 52.90262 -1.51378 15797 ft 309 kts 327°
2026-04-30 18:21 52.92118 -1.53288 15569 ft 318 kts 327°
2026-04-30 18:21 52.94003 -1.55229 15319 ft 319 kts 327°
2026-04-30 18:21 52.95871 -1.57149 14965 ft 320 kts 327°
2026-04-30 18:21 52.97767 -1.59099 14602 ft 322 kts 327°
2026-04-30 18:22 52.99672 -1.61066 14228 ft 323 kts 327°
2026-04-30 18:22 53.03361 -1.64880 13466 ft 324 kts 327°
2026-04-30 18:22 53.05208 -1.67000 13109 ft 322 kts 318°
2026-04-30 18:23 53.06774 -1.69632 12738 ft 319 kts 308°
2026-04-30 18:23 53.08207 -1.72436 12378 ft 318 kts 308°
2026-04-30 18:23 53.09645 -1.75227 12096 ft 314 kts 308°
2026-04-30 18:23 53.11046 -1.77935 11980 ft 305 kts 308°
2026-04-30 18:24 53.13797 -1.83252 11402 ft 301 kts 308°
2026-04-30 18:24 53.15145 -1.85866 11102 ft 300 kts 307°
2026-04-30 18:24 53.16498 -1.88498 10763 ft 300 kts 307°
2026-04-30 18:25 53.17867 -1.91172 10309 ft 306 kts 307°
2026-04-30 18:25 53.20658 -1.96647 9338 ft 314 kts 307°
2026-04-30 18:25 53.22078 -1.99451 8709 ft 317 kts 306°
2026-04-30 18:26 53.23231 -2.06079 7416 ft 293 kts 255°
2026-04-30 18:26 53.22798 -2.09372 6784 ft 289 kts 251°
2026-04-30 18:26 53.22297 -2.12594 6143 ft 286 kts 250°
2026-04-30 18:27 53.21273 -2.18995 4836 ft 284 kts 250°
2026-04-30 18:27 53.20760 -2.22160 4210 ft 282 kts 250°
2026-04-30 18:28 53.19839 -2.28075 4000 ft 242 kts 250°
2026-04-30 18:28 53.19459 -2.30680 3998 ft 220 kts 250°
2026-04-30 18:28 53.18861 -2.35167 4011 ft 180 kts 250°
2026-04-30 18:29 53.18622 -2.37118 3975 ft 165 kts 250°
2026-04-30 18:29 53.17954 -2.42924 3013 ft 177 kts 251°
2026-04-30 18:30 53.19014 -2.46611 3003 ft 196 kts 334°
2026-04-30 18:30 53.21481 -2.48329 2992 ft 184 kts 340°
2026-04-30 18:31 53.22618 -2.49146 2999 ft 172 kts 340°
2026-04-30 18:31 53.24745 -2.49101 3005 ft 146 kts 43°
2026-04-30 18:32 53.26021 -2.46766 3011 ft 134 kts 62°
2026-04-30 18:32 53.26613 -2.45555 3012 ft 136 kts 62°
2026-04-30 18:32 53.27807 -2.43098 2531 ft 135 kts 62°
2026-04-30 18:33 53.28386 -2.41911 2287 ft 129 kts 63°
2026-04-30 18:33 53.29494 -2.39631 1910 ft 125 kts 62°
2026-04-30 18:33 53.30040 -2.38504 1739 ft 125 kts 61°
2026-04-30 18:34 53.30595 -2.37362 1579 ft 126 kts 60°
2026-04-30 18:34 53.31681 -2.35124 1231 ft 123 kts 60°
2026-04-30 18:34 53.32231 -2.33990 1057 ft 126 kts 59°
2026-04-30 18:35 53.32792 -2.32843 863 ft 127 kts 57°
2026-04-30 18:35 53.33352 -2.31720 645 ft 127 kts 59°
2026-04-30 18:35 53.33906 -2.30592 547 ft 123 kts 56°
2026-04-30 18:36 53.35004 -2.28280 267 ft 128 kts 54°
2026-04-30 18:36 53.35507 -2.27206 249 ft 99 kts 49°
2026-04-30 18:36 53.35962 -2.26275 263 ft 32 kts 47°
2026-04-30 18:37 53.36065 -2.26150 257 ft 11 kts 324°
2026-04-30 18:37 53.36125 -2.26236 255 ft 2 kts 322°
2026-04-30 18:37 53.36131 -2.26246 256 ft 0 kts 311°
2026-04-30 18:45 53.35794 -2.27135 255 ft 0 kts 251°
2026-04-30 18:45 53.35796 -2.27140 255 ft 2 kts 285°
2026-04-30 18:45 53.35818 -2.27192 255 ft 7 kts 301°
2026-04-30 18:46 53.35809 -2.27279 255 ft 9 kts 232°
2026-04-30 18:46 53.35764 -2.27371 255 ft 11 kts 229°
2026-04-30 18:46 53.35712 -2.27481 254 ft 13 kts 231°
2026-04-30 18:46 53.35674 -2.27571 247 ft 6 kts 256°
2026-04-30 18:47 53.35708 -2.27625 248 ft 7 kts 337°
2026-04-30 18:47 53.35766 -2.27650 251 ft 8 kts
2026-04-30 18:47 53.35807 -2.27644 254 ft 4 kts
2026-04-30 18:47 53.35836 -2.27640 255 ft 5 kts
2026-04-30 18:48 53.35880 -2.27633 255 ft 7 kts
2026-04-30 18:48 53.35938 -2.27628 255 ft 10 kts 358°
2026-04-30 18:48 53.36013 -2.27623 255 ft 11 kts
2026-04-30 18:48 53.36060 -2.27623 255 ft 3 kts 339°
2026-04-30 18:49 53.36077 -2.27661 255 ft 5 kts 288°
2026-04-30 18:49 53.36091 -2.27757 255 ft 11 kts 283°
2026-04-30 18:49 53.36110 -2.27887 255 ft 12 kts 286°
2026-04-30 18:49 53.36168 -2.27989 255 ft 13 kts 319°
2026-04-30 18:50 53.36234 -2.28098 255 ft 14 kts 314°
2026-04-30 18:50 53.36308 -2.28222 255 ft 16 kts 314°
2026-04-30 18:50 53.36367 -2.28321 255 ft 9 kts 315°
2026-04-30 18:50 53.36378 -2.28341 255 ft 0 kts 313°
2026-04-30 18:52 53.36379 -2.28341 255 ft 0 kts 313°
2026-04-30 18:52 53.36392 -2.28367 255 ft 6 kts 307°
2026-04-30 18:52 53.36412 -2.28445 255 ft 9 kts 291°
2026-04-30 18:53 53.36450 -2.28538 255 ft 11 kts 313°
2026-04-30 18:53 53.36508 -2.28634 255 ft 13 kts 316°
2026-04-30 18:53 53.36561 -2.28725 255 ft 10 kts 310°
2026-04-30 18:53 53.36597 -2.28823 255 ft 8 kts 296°
2026-04-30 18:54 53.36638 -2.28888 255 ft 9 kts 338°
2026-04-30 18:54 53.36690 -2.28944 255 ft 10 kts 315°
2026-04-30 18:54 53.36741 -2.29030 255 ft 11 kts 315°
2026-04-30 18:54 53.36782 -2.29039 255 ft 6 kts 17°
2026-04-30 18:55 53.36827 -2.29000 255 ft 8 kts 28°
2026-04-30 18:55 53.36905 -2.28875 255 ft 9 kts 44°
2026-04-30 18:55 53.36943 -2.28813 255 ft 5 kts 49°
2026-04-30 18:56 53.36927 -2.28756 255 ft 4 kts 137°
2026-04-30 18:56 53.36918 -2.28741 255 ft 0 kts 133°
2026-04-30 18:56 53.36917 -2.28739 255 ft 0 kts 135°